TimeMST,TemperatureF,Dew PointF,Humidity,Sea Level PressureIn,VisibilityMPH,Wind Direction,Wind SpeedMPH,Gust SpeedMPH,PrecipitationIn,Events,Conditions,WindDirDegrees,DateUTC
12:15 AM,30.7,11.7,45,29.67,10.0,ENE,9.2,-,N/A,,Clear,70,2013-02-20 07:15:00
12:35 AM,31.8,11.3,43,29.67,10.0,NE,3.5,-,N/A,,Clear,50,2013-02-20 07:35:00
12:55 AM,32.0,10.2,40,29.66,10.0,Calm,Calm,-,N/A,,Clear,0,2013-02-20 07:55:00
1:15 AM,32.9,10.4,39,29.66,10.0,Calm,Calm,-,N/A,,Clear,0,2013-02-20 08:15:00
1:35 AM,30.4,12.2,47,29.66,10.0,Calm,Calm,-,N/A,,Clear,0,2013-02-20 08:35:00
1:55 AM,29.3,12.0,49,29.65,10.0,Calm,Calm,-,N/A,,Clear,0,2013-02-20 08:55:00
2:35 AM,28.0,12.7,53,29.64,10.0,North,3.5,-,N/A,,Clear,10,2013-02-20 09:35:00
2:55 AM,29.7,9.7,43,29.64,10.0,Calm,Calm,-,N/A,,Clear,0,2013-02-20 09:55:00
3:15 AM,28.2,10.0,47,29.63,10.0,Calm,Calm,-,N/A,,Clear,0,2013-02-20 10:15:00
3:35 AM,27.0,10.6,50,29.63,10.0,Calm,Calm,-,N/A,,Clear,0,2013-02-20 10:35:00
3:55 AM,25.9,11.5,55,29.63,10.0,Calm,Calm,-,N/A,,Clear,0,2013-02-20 10:55:00
4:15 AM,26.8,11.8,53,29.62,10.0,NNE,6.9,-,N/A,,Clear,20,2013-02-20 11:15:00
4:35 AM,28.8,11.8,49,29.62,10.0,Calm,Calm,-,N/A,,Clear,0,2013-02-20 11:35:00
5:15 AM,26.2,13.8,59,29.63,10.0,Calm,Calm,-,N/A,,Clear,0,2013-02-20 12:15:00
5:35 AM,27.5,13.8,56,29.63,10.0,NNW,3.5,-,N/A,,Clear,330,2013-02-20 12:35:00
5:55 AM,27.3,13.5,56,29.63,10.0,NNW,3.5,-,N/A,,Clear,340,2013-02-20 12:55:00
6:15 AM,27.1,13.6,57,29.63,10.0,Calm,Calm,-,N/A,,Clear,0,2013-02-20 13:15:00
6:35 AM,27.7,13.5,55,29.62,10.0,Calm,Calm,-,N/A,,Scattered Clouds,0,2013-02-20 13:35:00
6:55 AM,27.7,13.8,56,29.63,10.0,Calm,Calm,-,N/A,,Scattered Clouds,0,2013-02-20 13:55:00
7:15 AM,26.2,14.0,60,29.62,10.0,Calm,Calm,-,N/A,,Mostly Cloudy,0,2013-02-20 14:15:00
7:35 AM,28.4,14.5,56,29.62,10.0,North,6.9,-,N/A,,Overcast,10,2013-02-20 14:35:00
7:55 AM,31.3,14.2,49,29.61,10.0,North,4.6,-,N/A,,Overcast,10,2013-02-20 14:55:00
8:15 AM,32.9,14.5,47,29.61,10.0,NE,8.1,-,N/A,,Overcast,40,2013-02-20 15:15:00
8:35 AM,29.5,17.4,61,29.61,10.0,South,4.6,-,N/A,,Mostly Cloudy,190,2013-02-20 15:35:00
8:55 AM,30.6,16.0,55,29.62,10.0,WSW,4.6,-,N/A,,Overcast,240,2013-02-20 15:55:00
9:15 AM,32.5,16.5,52,29.61,10.0,NW,4.6,-,N/A,,Overcast,320,2013-02-20 16:15:00
9:35 AM,37.8,13.3,37,29.61,10.0,Calm,Calm,-,N/A,,Mostly Cloudy,0,2013-02-20 16:35:00
9:55 AM,37.8,14.4,38,29.61,10.0,Calm,Calm,-,N/A,,Overcast,0,2013-02-20 16:55:00
10:15 AM,38.7,14.0,37,29.61,10.0,Calm,Calm,-,N/A,,Overcast,0,2013-02-20 17:15:00
10:55 AM,41.9,13.3,31,29.60,10.0,WNW,4.6,-,N/A,,Overcast,290,2013-02-20 17:55:00
11:15 AM,43.7,13.1,29,29.60,10.0,West,4.6,-,N/A,,Overcast,270,2013-02-20 18:15:00
11:35 AM,44.2,14.9,31,29.58,10.0,SSW,5.8,-,N/A,,Overcast,210,2013-02-20 18:35:00
11:55 AM,47.3,16.2,29,29.58,10.0,SW,10.4,-,N/A,,Overcast,220,2013-02-20 18:55:00
12:15 PM,48.7,18.9,31,29.56,10.0,SW,9.2,-,N/A,,Overcast,230,2013-02-20 19:15:00
12:35 PM,48.7,19.4,31,29.55,10.0,WSW,8.1,-,N/A,,Scattered Clouds,240,2013-02-20 19:35:00
12:55 PM,47.5,22.8,38,29.54,10.0,SSW,18.4,23.0,N/A,,Clear,210,2013-02-20 19:55:00
1:15 PM,47.3,22.3,37,29.53,10.0,SW,15.0,19.6,N/A,,Scattered Clouds,220,2013-02-20 20:15:00
1:55 PM,46.0,21.2,37,29.52,10.0,SW,11.5,-,N/A,,Overcast,230,2013-02-20 20:55:00
2:15 PM,46.0,21.7,38,29.51,10.0,West,12.7,-,N/A,,Overcast,270,2013-02-20 21:15:00
2:35 PM,45.9,20.1,36,29.52,10.0,West,8.1,-,N/A,,Overcast,280,2013-02-20 21:35:00
2:55 PM,45.1,20.3,37,29.52,10.0,SW,11.5,24.2,N/A,,Overcast,220,2013-02-20 21:55:00
3:15 PM,44.6,22.5,42,29.52,10.0,SW,17.3,21.9,N/A,,Overcast,220,2013-02-20 22:15:00
3:35 PM,43.0,24.6,48,29.54,10.0,WSW,12.7,-,N/A,,Overcast,250,2013-02-20 22:35:00
3:55 PM,41.9,26.6,55,29.54,10.0,NW,10.4,-,N/A,,Overcast,320,2013-02-20 22:55:00
4:15 PM,41.4,27.3,57,29.56,10.0,WSW,5.8,-,N/A,,Overcast,240,2013-02-20 23:15:00
4:35 PM,38.1,31.1,76,29.56,2.5,West,4.6,9.2,N/A,Snow,Light Snow,260,2013-02-20 23:35:00
4:55 PM,38.3,31.6,77,29.57,10.0,WSW,4.6,-,N/A,Rain,Light Rain,250,2013-02-20 23:55:00
5:15 PM,36.5,32.2,84,29.57,4.0,WSW,6.9,-,N/A,Rain,Light Rain,250,2013-02-21 00:15:00
5:35 PM,34.9,32.9,92,29.57,5.0,South,4.6,-,N/A,Rain,Light Rain,180,2013-02-21 00:35:00
5:55 PM,35.4,32.9,91,29.57,10.0,Calm,Calm,-,N/A,Snow,Light Snow,0,2013-02-21 00:55:00
6:15 PM,35.4,33.1,91,29.58,10.0,South,8.1,-,N/A,,Light Drizzle,170,2013-02-21 01:15:00
6:35 PM,34.9,32.9,92,29.59,4.0,SSW,5.8,-,N/A,Snow,Light Snow,210,2013-02-21 01:35:00
6:55 PM,34.0,32.5,94,29.59,1.5,SSW,5.8,-,N/A,Snow,Light Snow,200,2013-02-21 01:55:00
7:15 PM,33.8,32.9,96,29.59,3.0,South,6.9,-,N/A,Snow,Light Snow,190,2013-02-21 02:15:00
7:35 PM,33.8,32.9,96,29.59,4.0,SSW,8.1,-,N/A,Snow,Light Snow,210,2013-02-21 02:35:00
7:55 PM,33.8,32.9,96,29.60,4.0,SW,5.8,-,N/A,Snow,Light Snow,220,2013-02-21 02:55:00
8:15 PM,34.0,33.3,97,29.60,7.0,SW,6.9,-,N/A,Rain,Light Rain,230,2013-02-21 03:15:00
8:35 PM,34.0,33.3,97,29.60,7.0,SSW,6.9,-,N/A,Rain,Light Rain,210,2013-02-21 03:35:00
8:55 PM,34.2,33.3,97,29.60,10.0,SW,8.1,-,N/A,,Light Drizzle,220,2013-02-21 03:55:00
9:15 PM,34.2,33.3,97,29.61,10.0,SW,5.8,-,N/A,,Overcast,230,2013-02-21 04:15:00
9:35 PM,34.2,33.3,97,29.61,10.0,Calm,Calm,-,N/A,,Overcast,0,2013-02-21 04:35:00
9:55 PM,34.5,33.6,97,29.62,7.0,Calm,Calm,-,N/A,,Overcast,0,2013-02-21 04:55:00
10:15 PM,34.7,33.8,97,29.62,10.0,East,3.5,-,N/A,,Overcast,80,2013-02-21 05:15:00
10:35 PM,34.5,33.3,95,29.62,10.0,Calm,Calm,-,N/A,,Overcast,0,2013-02-21 05:35:00
10:55 PM,34.0,32.9,96,29.62,10.0,ENE,3.5,-,N/A,,Overcast,70,2013-02-21 05:55:00
11:15 PM,33.8,32.5,95,29.62,10.0,Calm,Calm,-,N/A,,Overcast,0,2013-02-21 06:15:00
11:35 PM,34.0,32.9,96,29.62,10.0,Calm,Calm,-,N/A,,Overcast,0,2013-02-21 06:35:00
11:55 PM,34.0,32.7,95,29.61,10.0,Calm,Calm,-,N/A,,Overcast,0,2013-02-21 06:55:00